Вернуться в каталог

FENGYUN 1C DEB

АктивенSSO
NORAD 30915·DEBRIS·🇨🇳 China

Запущен May 10, 1999 с Taiyuan Satellite Launch Center

Loading…

Ближайшие Пролёты (ближайшие 24 часа)

TLE

СвежийSource: Space-Track

Эпоха: Sep 14, 2026, 12:18 UTC

1 30915U 99025AZD 26257.51319016  .00002096  00000-0  87073-3 0  9996
2 30915  98.9320 344.0980 0052381  91.0882 269.6300 14.26816159  4290

Отслеживайте FENGYUN 1C DEB в реальном времени с AllMySat

Download on the App Store